Regional Weather Roundup
Issued by NWS Goodland, KS

Home | Current Version | Previous Version | Graphics & Text | Print | Product List | Glossary On
Versions: 1 2 3 4 5 6 7 8 9 10 11 12 13 14 15 16 17 18 19 20 21 22 23 24 25 26 27 28 29 30 31 32 33 34 35 36 37 38 39 40 41 42 43 44 45 46 47 48 49 50
000
ASUS43 KGLD 161159
RWRGLD

GOODLAND FORECAST AREA HOURLY WEATHER ROUNDUP
NATIONAL WEATHER SERVICE GOODLAND KS
600 AM MDT TUE SEP 16 2014

...OFFICIAL OBSERVATIONS...

CITY           SKY/WX    TMP DP  RH WIND       PRES   REMARKS
GOODLAND KS    CLOUDY    58  54  86 S12       30.18F
HILL CITY KS   CLOUDY    50  46  86 SE5       30.22F
IMPERIAL NEB   PTCLDY    49  47  93 N9        30.17R
MCCOOK NEB     CLOUDY    50  45  83 MISG      30.20S
AKRON CO       CLEAR     53  50  89 SW12      30.14R
BURLINGTON CO  CLOUDY    57  51  80 S13       30.19S
LIMON CO       CLOUDY    53  51  93 S12       30.23F
$$

...UNOFFICIAL OBSERVATIONS...

CITY           SKY/WX    TMP DP  RH WIND       PRES   REMARKS
COLBY KS       CLOUDY    55  55 100 SE9       30.20S
GOVE KS          N/A     52  32  46 MISG        N/A
NORTON KS      PTCLDY    48  43  81 SE10G16   30.19F
SHARON SPRINGS   N/A     59  55  88 S9          N/A
WAKEENEY KS      N/A     51  49  93 MISG        N/A
TRENTON NEB      N/A     48  32  54 SE8         N/A
YUMA CO          N/A     53  52  96 S5          N/A
$$



USA.gov is the U.S. government's official web portal to all federal, state and local government web resources and services.